Orlando International, FL

4:53 AM EST on January 17, 2018 (GMT -0500)
Orlando International

Weather History for KMCO - November, 2011

Change the Weather History Date:

Wednesday, November 16, 2011

  Actual Average Record
Temperature  
Mean Temperature 78 °F 68 °F  
Max Temperature 85 °F 78 °F 92 °F (1921)
Min Temperature 70 °F 58 °F 38 °F (1969)
Degree Days  
Heating Degree Days 0 1  
Month to date heating degree days 11 16  
Since 1 July heating degree days 19 21  
Cooling Degree Days 13 5  
Month to date cooling degree days 67 94  
Year to date cooling degree days 3538 3301  
Growing Degree Days 28 (Base 50)    
Moisture  
Dew Point 71 °F    
Average Humidity 80    
Maximum Humidity 100    
Minimum Humidity 59    
Precipitation  
Precipitation 0.00 in 0.07 in 3.83 in (1994)
Month to date precipitation 0.07 1.19  
Year to date precipitation 56.02 47.17  
Sea Level Pressure  
Sea Level Pressure 30.02 in    
Wind  
Wind Speed 7 mph (South)    
Max Wind Speed 17 mph    
Max Gust Speed 21 mph    
Visibility 10 miles    
Events      
T = Trace of Precipitation, MM = Missing Value Source: NWS Daily Summary

Daily Weather History Graph

Daily Weather History Graph

Search for Another Location

Airport or City:

Trip Planner

Search our weather history database for the weather conditions in past years. The results will help you decide how hot, cold, wet, or windy it might be!

Date:

Astronomy

Nov. 16, 2011 Rise Set
Actual Time 6:48 AM EST 5:31 PM EST
Civil Twilight 6:23 AM EST 5:56 PM EST
Nautical Twilight 5:54 AM EST 6:24 PM EST
Astronomical Twilight 5:26 AM EST 6:53 PM EST
Moon 10:39 PM EST (11/16) 11:25 AM EST (11/16)
Length of Visible Light 11h 33m
Length of Day
10h 43m
Waning Gibbous, 70% of the Moon is Illuminated
Nov 16
Waning Gibbous
Nov 18
Last Quarter
Nov 25
New
Dec 2
First Quarter
Dec 10
Full

Hourly Weather History & Observations

Time (EST) Temp. Heat Index Dew Point Humidity Pressure Visibility Wind Dir Wind Speed Gust Speed Precip Events Conditions
12:09 AM 75.2 °F - 73.4 °F 94% 30.03 in 10.0 mi SSE 10.4 mph - N/A   Overcast
12:53 AM 73.9 °F - 73.0 °F 97% 30.02 in 10.0 mi South 11.5 mph - N/A   Overcast
1:53 AM 73.9 °F - 72.0 °F 93% 30.01 in 10.0 mi South 6.9 mph - N/A   Overcast
2:53 AM 73.9 °F - 73.0 °F 97% 29.99 in 10.0 mi SSE 11.5 mph - N/A   Overcast
3:53 AM 73.9 °F - 72.0 °F 93% 30.00 in 10.0 mi South 10.4 mph - N/A   Overcast
4:13 AM 73.4 °F - 71.6 °F 94% 30.01 in 10.0 mi South 8.1 mph - N/A   Overcast
4:39 AM 73.4 °F - 71.6 °F 94% 30.01 in 10.0 mi South 8.1 mph - N/A   Overcast
4:53 AM 73.9 °F - 72.0 °F 93% 30.01 in 10.0 mi South 6.9 mph - N/A   Mostly Cloudy
5:53 AM 73.0 °F - 72.0 °F 96% 30.02 in 10.0 mi SSE 4.6 mph - N/A   Mostly Cloudy
6:53 AM 73.0 °F - 72.0 °F 96% 30.04 in 10.0 mi Calm Calm - N/A   Mostly Cloudy
7:53 AM 73.9 °F - 72.0 °F 93% 30.05 in 7.0 mi Calm Calm - N/A   Mostly Cloudy
8:30 AM 75.2 °F - 73.4 °F 94% 30.07 in 10.0 mi South 4.6 mph - N/A   Mostly Cloudy
8:49 AM 75.2 °F - 73.4 °F 94% 30.07 in 10.0 mi South 4.6 mph - N/A   Mostly Cloudy
8:53 AM 75.0 °F - 73.0 °F 94% 30.07 in 10.0 mi South 4.6 mph - N/A   Mostly Cloudy
9:14 AM 75.2 °F - 73.4 °F 94% 30.08 in 10.0 mi South 4.6 mph - N/A   Mostly Cloudy
9:39 AM 77.0 °F - 71.6 °F 83% 30.08 in 10.0 mi South 8.1 mph - N/A   Overcast
9:53 AM 77.0 °F - 72.0 °F 84% 30.07 in 10.0 mi South 9.2 mph - N/A   Mostly Cloudy
10:53 AM 80.1 °F 83.6 °F 71.1 °F 74% 30.06 in 10.0 mi South 11.5 mph - N/A   Mostly Cloudy
11:53 AM 81.0 °F 84.1 °F 69.1 °F 67% 30.04 in 10.0 mi South 12.7 mph - N/A   Mostly Cloudy
12:53 PM 82.0 °F 84.9 °F 68.0 °F 62% 30.01 in 10.0 mi SSW 11.5 mph - N/A   Mostly Cloudy
1:53 PM 84.0 °F 87.0 °F 68.0 °F 58% 29.98 in 10.0 mi SSW 11.5 mph - N/A   Scattered Clouds
2:53 PM 84.0 °F 87.8 °F 69.1 °F 61% 29.96 in 10.0 mi SSW 8.1 mph - N/A   Scattered Clouds
3:53 PM 82.9 °F 85.8 °F 68.0 °F 60% 29.96 in 10.0 mi South 5.8 mph - N/A   Scattered Clouds
4:53 PM 82.0 °F 84.9 °F 68.0 °F 62% 29.96 in 10.0 mi South 6.9 mph - N/A   Partly Cloudy
5:53 PM 77.0 °F - 69.1 °F 76% 29.97 in 10.0 mi SSE 5.8 mph - N/A   Scattered Clouds
6:53 PM 73.9 °F - 69.1 °F 85% 29.98 in 10.0 mi South 5.8 mph - N/A   Scattered Clouds
7:53 PM 75.0 °F - 70.0 °F 84% 29.99 in 10.0 mi SW 4.6 mph - N/A   Partly Cloudy
8:53 PM 73.0 °F - 69.1 °F 87% 30.00 in 10.0 mi SSW 3.5 mph - N/A   Partly Cloudy
9:53 PM 71.1 °F - 69.1 °F 93% 30.01 in 10.0 mi ESE 3.5 mph - N/A   Partly Cloudy
10:53 PM 71.1 °F - 69.1 °F 93% 30.01 in 10.0 mi SSE 4.6 mph - N/A   Scattered Clouds
11:53 PM 70.0 °F - 69.1 °F 97% 30.01 in 10.0 mi South 4.6 mph - N/A   Partly Cloudy